Flag for U.S.A. Weather past 2 weeks in Port St. Lucie, Florida, U.S.A.

Now
75 °F

Passing clouds.


Feels Like: 76 °F
Forecast: 73 / 91 °F
Wind: 7 mph from Southwest

Location: Witham Field Airport

Current Time: Aug 3, 2015 at 10:01:06 AM

Latest Report: Aug 3, 2015 at 8:47 AM


Visibility: 10 mi

Pressure: 29.97 "Hg

Humidity: 78%

Dew point: 68 °F

Location of Port St. LucieLocation

Historic Weather in Port St. Lucie — Graph

°F

Port St. Lucie temperature yesterday

Maximum temperature yesterday: 88 °F (at 11:47 AM)
Minimum temperature yesterday: 72 °F (at 6:47 AM)
Average temperature yesterday: 76 °F

Past Weeks' High & Low Weather Summary

 TemperatureHumidityPressure
High93 °F (Jul 21, 2:47 PM)100% (Aug 1, 7:50 AM)30.08 "Hg (Aug 1, 7:50 AM)
Low72 °F (Jul 31, 6:47 PM)41% (Jul 21, 1:47 PM)29.88 "Hg (Jul 26, 3:55 AM)
Average78 °F82%29.99 "Hg
* Reported Jul 19 7:47 AM — Aug 3 7:47 AM, Port St. Lucie, Weather by CustomWeather, © 2015

Note: Actual official high and low records may vary slightly from our data, if they occured in-between our weather recording intervals... More about our weather records

Advertising

Port St. Lucie weather history for previous 24 hours

 ConditionsComfort  
Time TempWeatherWind HumidityBarometerVisibility
7:47 AM
Mon, Aug 3
75 °FPassing clouds.6 mph78%29.97 "Hg10 mi
6:47 AM73 °FPassing clouds.No wind78%29.95 "Hg7 mi
6:15 AM72 °FClear.No wind83%29.94 "HgN/A
5:55 AM72 °FClear.3 mph83%29.94 "HgN/A
5:35 AM73 °FClear.No wind78%29.95 "HgN/A
5:15 AM73 °FClear.3 mph78%29.94 "HgN/A
4:55 AM73 °FClear.5 mph78%29.94 "HgN/A
4:35 AM72 °FClear.6 mph88%29.94 "HgN/A
4:15 AM72 °FClear.5 mph88%29.94 "HgN/A
3:55 AM72 °FClear.3 mph88%29.94 "HgN/A
3:35 AM72 °FClear.6 mph88%29.95 "HgN/A
3:15 AM72 °FClear.5 mph88%29.96 "HgN/A
2:55 AM72 °FMild.No wind88%29.96 "HgN/A
2:35 AM73 °FClear.3 mph83%29.97 "HgN/A
2:15 AM73 °FClear.3 mph83%29.97 "HgN/A
1:55 AM73 °FClear.5 mph83%29.98 "HgN/A
1:35 AM73 °FClear.5 mph83%29.99 "HgN/A
1:15 AM73 °FClear.6 mph83%29.99 "HgN/A
12:55 AM72 °FClear.3 mph88%29.99 "HgN/A
12:15 AM73 °FClear.5 mph83%30.00 "HgN/A
11:55 PM
Sun, Aug 2
73 °FClear.3 mph83%30.00 "HgN/A
11:35 PM73 °FClear.No wind83%30.00 "HgN/A
11:15 PM73 °FPassing clouds.No wind83%30.00 "HgN/A
10:55 PM73 °FPassing clouds.No wind83%30.00 "HgN/A
10:35 PM73 °FPassing clouds.3 mph83%29.99 "HgN/A
10:15 PM73 °FPassing clouds.No wind83%29.99 "HgN/A
9:55 PM73 °FPassing clouds.No wind83%29.99 "HgN/A
9:35 PM73 °FPassing clouds.No wind83%29.99 "HgN/A
9:15 PM73 °FClear.No wind83%29.99 "HgN/A
8:55 PM75 °FSunny.No wind78%29.99 "HgN/A
8:35 PM75 °FSunny.3 mph78%29.99 "HgN/A
8:15 PM77 °FSunny.6 mph74%29.99 "HgN/A
7:55 PM77 °FSunny.3 mph74%29.98 "HgN/A
7:35 PM77 °FSunny.7 mph74%29.98 "HgN/A
7:15 PM77 °FSunny.7 mph74%29.98 "HgN/A
6:47 PM77 °FThundershowers. Partly sunny.No wind74%29.97 "Hg7 mi
5:47 PM77 °FThundershowers. Partly sunny.9 mph74%29.99 "Hg7 mi
4:57 PM77 °FThundershowers. Broken clouds.9 mph83%30.00 "Hg7 mi
3:47 PM77 °FThundershowers. Broken clouds.16 mph83%30.00 "Hg5 mi
2:47 PM84 °FScattered showers. Broken clouds.16 mph70%29.99 "Hg7 mi
1:47 PM86 °FMore clouds than sun.13 mph55%29.98 "Hg7 mi
11:47 AM88 °FBroken clouds.10 mph62%29.99 "Hg7 mi
Weather by CustomWeather, © 2015

See weather overviewHow to use our weather pages